Regional Weather Roundup
Issued by NWS Green Bay, WI

Home | Current Version | Previous Version | Text Only | Print | Product List | Glossary On
Versions: 1 2 3 4 5 6 7 8 9 10 11 12 13 14 15 16 17 18 19 20 21 22 23 24 25 26 27 28 29 30 31 32 33 34 35 36 37 38 39 40 41 42 43 44 45 46 47 48 49 50
000
ASUS43 KGRB 241811
RWRGRB

NORTH-CENTRAL AND NORTHEAST WISCONSIN REGIONAL WEATHER ROUNDUP
NATIONAL WEATHER SERVICE GREEN BAY WI
1200 PM CST FRI FEB 24 2017

WIZ005-009-010>012-018-019-241900-
NORTH CENTRAL WISCONSIN

CITY           SKY/WX    TMP DP  RH WIND       PRES   REMARKS
IRONWOOD       LGT SNOW  23  18  81 N10G16    29.84F VSB 1
MANITOWISH WTR LGT SNOW  20  16  84 N12G21    29.77F WCI   8
ARBOR VITAE    CLOUDY    22  17  83 N14G20      N/A  HAZE    WCI   9
EAGLE RIVER    LGT SNOW  21  17  83 NE12      29.74S WCI   9
LAND O LAKES   LGT SNOW  20  17  87 NE9G16    29.78S WCI  10
RHINELANDER    LGT SNOW  23  18  81 N12G20    29.73S
PHILLIPS       LGT SNOW  22  18  83 N17       29.75F WCI   8
ANTIGO         SNOW      22  19  90 N16G26    29.67F VSB 1/2 WCI   8
TOMAHAWK       CLOUDY    23  19  84 N10G18    29.73F FOG
MERRILL        NOT AVBL
$$

WIZ013-073-241900-
NORTHEAST WISCONSIN

CITY           SKY/WX    TMP DP  RH WIND       PRES   REMARKS
IRON MOUNTAIN  SNOW      24  18  77 N20       29.72F VSB 1/2 WCI  10
MARINETTE      LGT SNOW  28  25  86 NE14G22   29.67F VSB 1
OCONTO         CLOUDY    27  24  89 N14G21    29.67S
$$

WIZ017-030-035>037-045-241900-
CENTRAL WISCONSIN

CITY           SKY/WX    TMP DP  RH WIND       PRES   REMARKS
MEDFORD        CLOUDY    23  19  83 NE21G26   29.69F FOG     WCI   8
WAUSAU         LGT SNOW  24  20  84 N10G21    29.65F FOG
MOSINEE        SNOW      25  23  93 N10G25    29.67F VSB 1/2
MARSHFIELD     CLOUDY    25  20  81 N13G25    29.67F HAZE
WISC RAPIDS    MIX PCPN  27  23  85 NE13G21   29.67R FOG
STEVENS POINT  MIX PCPN  25  22  89 NE16G26   29.66F
WAUPACA        CLOUDY    30  26  84 N12G22    29.65F HAZE
SHAWANO        CLOUDY    29  25  84 NE18G25   29.67F HAZE
CLINTONVILLE   MIX PCPN  28  25  86 NE20G25   29.66F
WAUTOMA        FRZ RAIN  28  25  88 NE18G28   29.62F FOG
$$

WIZ038-039-048-051-241900-
FOX VALLEY

CITY           SKY/WX    TMP DP  RH WIND       PRES   REMARKS
NWS GREEN BAY  LGT SNOW  29  27  92 N22G32    29.64F FOG
APPLETON       CLOUDY    27  23  86 NE21G30   29.60F FOG
OSHKOSH        CLOUDY    28  25  88 NE26G38   29.60F FOG
FOND DU LAC    LGT SNOW  30  26  85 N25       29.58F FOG
$$

WIZ022-050-052-241900-
EAST CENTRAL WISCONSIN

CITY           SKY/WX    TMP DP  RH WIND       PRES   REMARKS
EPHRAIM        LGT SNOW  27  26  98 NE17G23   29.63F
WASHINGTON ISL LGT SNOW  27  25  92 NE22G32   29.67F VSB 3/4
STURGEON BAY   MIX PCPN  27  25  92 N17       29.64F FOG
MANITOWOC      MIX PCPN  32  29  88 NE17G23   29.59F FOG
SHEBOYGAN      MIX PCPN  32  31  96 NE23G30   29.55F FOG
$$

LMZ563-521-522-541>543-241900-
LAKESHORE

STATION/POSITION TIME  TEMP    WIND        PRES    VSBY  WAVE
                       AIR SEA DIR/SP/G                  HT/PER
                 (UTC) (F)     (DEG/KT/KT) (MB)    (MI)  (FT/S)
SHEBOYGAN LKSHOR 1800   33      20/ 28/ 31 1001.1F
KEWAUNEE LKSHORE 1748   31      40/ 20/ 31 1002.5F
NORTHPORT PIER   1740   27      20/ 15/ 23 1005.4F
SISTER BAY LKSHO 1735   28      10/ 19/ 32   N/A
CHAMBERS ISLAND  1740   27      10/ 26/ 30 1004.4F
MENOMINEE LKSHOR 1748   27      20/ 21/ 26 1004.0F
$$




USA.gov is the U.S. government's official web portal to all federal, state and local government web resources and services.